• In Moldova, Republic
  • List of Countries
  • For 7 days
  • Water Temperature
  • Satellite Maps
  • Weather Map
  • Weather Widgets
  • user-avatar
    Login

    Hourly Weather Lankaran

    Today, 28 April, Friday

    Time Temperature Precipitation Wind Pressure Humidity
    00:00 +3°C° 0 mm 1 mps 639 mmHg 90%
    01:00 +3°C° 0 mm 1 mps 639 mmHg 90%
    02:00 +3°C° 0 mm 1 mps 638 mmHg 91%
    03:00 +3°C° 0 mm 1 mps 638 mmHg 91%
    04:00 +4°C° 0 mm 1 mps 638 mmHg 90%
    05:00 +4°C° 0 mm 1 mps 638 mmHg 89%
    06:00 +5°C° 0 mm 1 mps 638 mmHg 88%
    07:00 +6°C° 0 mm 1 mps 638 mmHg 83%
    08:00 +7°C° 0 mm 2 mps 639 mmHg 79%
    09:00 +8°C° 0 mm 3 mps 639 mmHg 71%
    10:00 +9°C° 0 mm 3 mps 639 mmHg 70%
    11:00 +10°C° 0 mm 3 mps 639 mmHg 69%
    12:00 +11°C° 0 mm 3 mps 639 mmHg 68%
    13:00 +11°C° 0 mm 3 mps 638 mmHg 68%
    14:00 +11°C° 0 mm 3 mps 638 mmHg 69%
    15:00 +11°C° 0 mm 3 mps 638 mmHg 70%
    16:00 +10°C° 0 mm 2 mps 637 mmHg 74%
    17:00 +10°C° 0 mm 2 mps 637 mmHg 78%
    18:00 +9°C° 0 mm 2 mps 637 mmHg 82%
    19:00 +9°C° 0 mm 1 mps 637 mmHg 84%
    20:00 +8°C° 0 mm 1 mps 636 mmHg 86%
    21:00 +8°C° 0 mm 1 mps 636 mmHg 88%
    22:00 +8°C° 0 mm 1 mps 636 mmHg 88%
    23:00 +7°C° 0 mm 1 mps 636 mmHg 88%

    Tomorrow, 29 April, Saturday

    Time Temperature Precipitation Wind Pressure Humidity
    00:00 +7°C° 0 mm 1 mps 636 mmHg 88%
    01:00 +7°C° 0 mm 1 mps 635 mmHg 89%
    02:00 +7°C° 0 mm 1 mps 635 mmHg 90%
    03:00 +6°C° 0 mm 1 mps 635 mmHg 91%
    04:00 +7°C° 0 mm 1 mps 635 mmHg 89%
    05:00 +7°C° 0 mm 1 mps 635 mmHg 88%
    06:00 +8°C° 0 mm 1 mps 635 mmHg 86%
    07:00 +9°C° 0 mm 2 mps 636 mmHg 79%
    08:00 +10°C° 0 mm 2 mps 636 mmHg 73%
    09:00 +13°C° 0 mm 2 mps 636 mmHg 66%
    10:00 +14°C° 0.1 mm 2 mps 636 mmHg 64%
    11:00 +15°C° 0.1 mm 2 mps 636 mmHg 62%
    12:00 +16°C° 0.1 mm 3 mps 636 mmHg 61%
    13:00 +16°C° 0.2 mm 3 mps 636 mmHg 62%
    14:00 +16°C° 0.2 mm 3 mps 635 mmHg 63%
    15:00 +16°C° 0.2 mm 3 mps 635 mmHg 64%
    16:00 +15°C° 0.4 mm 2 mps 635 mmHg 70%
    17:00 +14°C° 0.4 mm 2 mps 635 mmHg 75%
    18:00 +13°C° 0.4 mm 1 mps 634 mmHg 80%
    19:00 +12°C° 0.1 mm 1 mps 634 mmHg 84%
    20:00 +11°C° 0.1 mm 1 mps 634 mmHg 87%
    21:00 +9°C° 0.1 mm 1 mps 634 mmHg 90%
    22:00 +9°C° 0.1 mm 1 mps 634 mmHg 89%
    23:00 +9°C° 0.1 mm 1 mps 633 mmHg 89%

    Day after tomorrow, 30 April, Sunday

    Time Temperature Precipitation Wind Pressure Humidity
    00:00 +8°C° 0.1 mm 1 mps 633 mmHg 88%
    01:00 +8°C° 0 mm 1 mps 633 mmHg 89%
    02:00 +8°C° 0 mm 1 mps 633 mmHg 89%
    03:00 +8°C° 0 mm 1 mps 633 mmHg 89%
    04:00 +8°C° 0 mm 1 mps 633 mmHg 87%
    05:00 +9°C° 0 mm 1 mps 633 mmHg 85%
    06:00 +10°C° 0 mm 1 mps 634 mmHg 83%
    07:00 +12°C° 0 mm 2 mps 634 mmHg 74%
    08:00 +14°C° 0 mm 2 mps 635 mmHg 65%
    09:00 +16°C° 0 mm 2 mps 635 mmHg 56%
    10:00 +17°C° 0 mm 2 mps 635 mmHg 52%
    11:00 +18°C° 0 mm 3 mps 635 mmHg 47%
    12:00 +19°C° 0 mm 3 mps 635 mmHg 43%
    13:00 +19°C° 0 mm 3 mps 635 mmHg 43%
    14:00 +19°C° 0 mm 3 mps 635 mmHg 44%
    15:00 +20°C° 0 mm 3 mps 634 mmHg 44%
    16:00 +18°C° 0.1 mm 2 mps 634 mmHg 50%
    17:00 +17°C° 0.1 mm 2 mps 634 mmHg 56%
    18:00 +16°C° 0.1 mm 1 mps 633 mmHg 62%
    19:00 +14°C° 0 mm 1 mps 633 mmHg 65%
    20:00 +13°C° 0 mm 1 mps 633 mmHg 68%
    21:00 +11°C° 0 mm 1 mps 633 mmHg 71%
    22:00 +11°C° 0 mm 1 mps 633 mmHg 68%
    23:00 +11°C° 0 mm 1 mps 633 mmHg 65%

    1 May, Monday

    Time Temperature Precipitation Wind Pressure Humidity
    00:00 +11°C° 0 mm 1 mps 632 mmHg 62%
    01:00 +11°C° 0 mm 1 mps 632 mmHg 62%
    02:00 +11°C° 0 mm 1 mps 632 mmHg 63%
    03:00 +11°C° 0 mm 1 mps 632 mmHg 63%
    04:00 +11°C° 0 mm 1 mps 633 mmHg 64%
    05:00 +12°C° 0 mm 1 mps 633 mmHg 65%
    06:00 +12°C° 0 mm 1 mps 633 mmHg 66%
    07:00 +14°C° 0 mm 1 mps 634 mmHg 57%
    08:00 +16°C° 0 mm 2 mps 635 mmHg 49%
    09:00 +18°C° 0 mm 2 mps 635 mmHg 40%
    10:00 +19°C° 0 mm 2 mps 635 mmHg 38%
    11:00 +20°C° 0 mm 2 mps 635 mmHg 37%
    12:00 +21°C° 0 mm 2 mps 635 mmHg 35%
    13:00 +20°C° 0 mm 2 mps 635 mmHg 36%
    14:00 +20°C° 0 mm 2 mps 635 mmHg 38%
    15:00 +20°C° 0 mm 2 mps 634 mmHg 39%
    16:00 +19°C° 0 mm 2 mps 634 mmHg 46%
    17:00 +18°C° 0 mm 2 mps 633 mmHg 52%
    18:00 +17°C° 0 mm 2 mps 633 mmHg 59%
    19:00 +15°C° 0 mm 2 mps 633 mmHg 61%
    20:00 +14°C° 0 mm 2 mps 633 mmHg 64%
    21:00 +12°C° 0 mm 1 mps 633 mmHg 66%
    22:00 +12°C° 0 mm 1 mps 633 mmHg 65%
    23:00 +12°C° 0 mm 1 mps 633 mmHg 64%

    2 May, Tuesday

    Time Temperature Precipitation Wind Pressure Humidity
    00:00 +12°C° 0 mm 1 mps 633 mmHg 63%
    01:00 +12°C° 0 mm 1 mps 632 mmHg 63%
    02:00 +12°C° 0 mm 1 mps 632 mmHg 64%
    03:00 +12°C° 0 mm 1 mps 632 mmHg 65%
    04:00 +12°C° 0 mm 1 mps 632 mmHg 66%
    05:00 +12°C° 0 mm 1 mps 632 mmHg 67%
    06:00 +12°C° 0 mm 1 mps 632 mmHg 69%
    07:00 +14°C° 0.1 mm 2 mps 633 mmHg 61%
    08:00 +16°C° 0.1 mm 2 mps 633 mmHg 54%
    09:00 +18°C° 0.1 mm 3 mps 634 mmHg 46%
    10:00 +19°C° 0.2 mm 3 mps 634 mmHg 46%
    11:00 +19°C° 0.2 mm 3 mps 634 mmHg 46%
    12:00 +20°C° 0.2 mm 4 mps 633 mmHg 45%
    13:00 +20°C° 0.3 mm 4 mps 633 mmHg 46%
    14:00 +20°C° 0.3 mm 4 mps 632 mmHg 46%
    15:00 +19°C° 0.3 mm 4 mps 632 mmHg 47%
    16:00 +18°C° 0.5 mm 3 mps 632 mmHg 53%
    17:00 +17°C° 0.5 mm 2 mps 631 mmHg 58%
    18:00 +16°C° 0.5 mm 1 mps 631 mmHg 64%
    19:00 +15°C° 0.2 mm 2 mps 631 mmHg 63%
    20:00 +15°C° 0.2 mm 2 mps 631 mmHg 62%
    21:00 +14°C° 0.2 mm 2 mps 631 mmHg 61%
    22:00 +13°C° 0 mm 2 mps 631 mmHg 62%
    23:00 +12°C° 0 mm 3 mps 631 mmHg 62%

    3 May, Wednesday

    Time Temperature Precipitation Wind Pressure Humidity
    00:00 +11°C° 0 mm 3 mps 631 mmHg 63%
    01:00 +11°C° 0 mm 3 mps 630 mmHg 63%
    02:00 +10°C° 0 mm 3 mps 630 mmHg 63%
    03:00 +10°C° 0 mm 3 mps 630 mmHg 64%
    04:00 +10°C° 0 mm 3 mps 630 mmHg 63%
    05:00 +11°C° 0 mm 3 mps 631 mmHg 62%
    06:00 +11°C° 0 mm 3 mps 631 mmHg 62%
    07:00 +13°C° 0 mm 3 mps 632 mmHg 54%
    08:00 +17°C° 0 mm 4 mps 632 mmHg 46%
    09:00 +19°C° 0 mm 4 mps 633 mmHg 38%
    10:00 +20°C° 0 mm 4 mps 633 mmHg 36%
    11:00 +21°C° 0 mm 4 mps 632 mmHg 34%
    12:00 +21°C° 0 mm 4 mps 632 mmHg 32%
    13:00 +21°C° 0 mm 4 mps 632 mmHg 32%
    14:00 +22°C° 0 mm 4 mps 632 mmHg 32%
    15:00 +22°C° 0 mm 4 mps 632 mmHg 32%
    16:00 +20°C° 0 mm 4 mps 632 mmHg 38%
    17:00 +19°C° 0 mm 3 mps 632 mmHg 44%
    18:00 +17°C° 0 mm 3 mps 631 mmHg 50%
    19:00 +16°C° 0 mm 3 mps 631 mmHg 50%
    20:00 +14°C° 0 mm 3 mps 631 mmHg 50%
    21:00 +13°C° 0 mm 3 mps 631 mmHg 50%
    22:00 +13°C° 0 mm 3 mps 631 mmHg 51%
    23:00 +13°C° 0 mm 3 mps 631 mmHg 53%
    Show more